<?xml version="1.0" encoding="UTF-8" standalone="no" ?>
<gpx xmlns="http://www.topografix.com/GPX/1/1" xmlns:xsi="http://www.w3.org/2001/XMLSchema-instance" xsi:schemaLocation="http://www.topografix.com/GPX/1/1 http://www.topografix.com/GPX/1/1/gpx.xsd" version="1.1" creator="VisuGPX - https://www.visugpx.com">
  <metadata>
    <name>jour_1_1 toutes les traces</name>
  </metadata>
  <trk>
    <name><![CDATA[jour 1_2_48km_sans_la_fin]]></name>
    <extensions>
      <line xmlns="http://www.topografix.com/GPX/gpx_style/0/2">
        <color>00FF00</color>
        <width>4</width>
      </line>
    </extensions>
    <trkseg>
      <trkpt lat="50.62459" lon="5.56676">
        <ele>69</ele>
        <time>2025-03-22T16:23:57Z</time>
      </trkpt>
      <trkpt lat="50.62478" lon="5.56758">
        <ele>65</ele>
        <time>2025-03-22T16:24:10Z</time>
      </trkpt>
      <trkpt lat="50.62439" lon="5.56826">
        <ele>67</ele>
        <time>2025-03-22T16:24:24Z</time>
      </trkpt>
      <trkpt lat="50.62514" lon="5.56895">
        <ele>67</ele>
        <time>2025-03-22T16:24:44Z</time>
      </trkpt>
      <trkpt lat="50.62536" lon="5.56923">
        <ele>67</ele>
        <time>2025-03-22T16:24:50Z</time>
      </trkpt>
      <trkpt lat="50.62626" lon="5.57087">
        <ele>66</ele>
        <time>2025-03-22T16:25:23Z</time>
      </trkpt>
      <trkpt lat="50.62753" lon="5.5727">
        <ele>70</ele>
        <time>2025-03-22T16:26:03Z</time>
      </trkpt>
      <trkpt lat="50.62768" lon="5.57303">
        <ele>67</ele>
        <time>2025-03-22T16:26:09Z</time>
      </trkpt>
      <trkpt lat="50.62761" lon="5.57312">
        <ele>67</ele>
        <time>2025-03-22T16:26:11Z</time>
      </trkpt>
      <trkpt lat="50.62781" lon="5.57369">
        <ele>61</ele>
        <time>2025-03-22T16:26:20Z</time>
      </trkpt>
      <trkpt lat="50.62865" lon="5.57542">
        <ele>65</ele>
        <time>2025-03-22T16:26:53Z</time>
      </trkpt>
      <trkpt lat="50.62848" lon="5.5756">
        <ele>66</ele>
        <time>2025-03-22T16:26:58Z</time>
      </trkpt>
      <trkpt lat="50.6279" lon="5.576">
        <ele>72</ele>
        <time>2025-03-22T16:27:12Z</time>
      </trkpt>
      <trkpt lat="50.62769" lon="5.57586">
        <ele>73</ele>
        <time>2025-03-22T16:27:18Z</time>
      </trkpt>
      <trkpt lat="50.62757" lon="5.57585">
        <ele>74</ele>
        <time>2025-03-22T16:27:20Z</time>
      </trkpt>
      <trkpt lat="50.62708" lon="5.57618">
        <ele>69</ele>
        <time>2025-03-22T16:27:33Z</time>
      </trkpt>
      <trkpt lat="50.62562" lon="5.57732">
        <ele>65</ele>
        <time>2025-03-22T16:28:11Z</time>
      </trkpt>
      <trkpt lat="50.62546" lon="5.57761">
        <ele>66</ele>
        <time>2025-03-22T16:28:17Z</time>
      </trkpt>
      <trkpt lat="50.62497" lon="5.57793">
        <ele>66</ele>
        <time>2025-03-22T16:28:29Z</time>
      </trkpt>
      <trkpt lat="50.62488" lon="5.57807">
        <ele>67</ele>
        <time>2025-03-22T16:28:32Z</time>
      </trkpt>
      <trkpt lat="50.62484" lon="5.57832">
        <ele>67</ele>
        <time>2025-03-22T16:28:36Z</time>
      </trkpt>
      <trkpt lat="50.625" lon="5.57977">
        <ele>66</ele>
        <time>2025-03-22T16:28:58Z</time>
      </trkpt>
      <trkpt lat="50.62425" lon="5.57984">
        <ele>63</ele>
        <time>2025-03-22T16:29:15Z</time>
      </trkpt>
      <trkpt lat="50.62398" lon="5.57993">
        <ele>62</ele>
        <time>2025-03-22T16:29:22Z</time>
      </trkpt>
      <trkpt lat="50.62364" lon="5.58012">
        <ele>61</ele>
        <time>2025-03-22T16:29:30Z</time>
      </trkpt>
      <trkpt lat="50.62331" lon="5.58038">
        <ele>61</ele>
        <time>2025-03-22T16:29:39Z</time>
      </trkpt>
      <trkpt lat="50.62281" lon="5.58093">
        <ele>62</ele>
        <time>2025-03-22T16:29:53Z</time>
      </trkpt>
      <trkpt lat="50.6228" lon="5.58103">
        <ele>63</ele>
        <time>2025-03-22T16:29:54Z</time>
      </trkpt>
      <trkpt lat="50.62223" lon="5.58216">
        <ele>66</ele>
        <time>2025-03-22T16:30:16Z</time>
      </trkpt>
      <trkpt lat="50.62212" lon="5.58221">
        <ele>65</ele>
        <time>2025-03-22T16:30:18Z</time>
      </trkpt>
      <trkpt lat="50.62206" lon="5.58229">
        <ele>65</ele>
        <time>2025-03-22T16:30:20Z</time>
      </trkpt>
      <trkpt lat="50.62197" lon="5.58249">
        <ele>66</ele>
        <time>2025-03-22T16:30:24Z</time>
      </trkpt>
      <trkpt lat="50.62162" lon="5.58342">
        <ele>69</ele>
        <time>2025-03-22T16:30:40Z</time>
      </trkpt>
      <trkpt lat="50.6216" lon="5.5836">
        <ele>69</ele>
        <time>2025-03-22T16:30:43Z</time>
      </trkpt>
      <trkpt lat="50.62042" lon="5.58702">
        <ele>65</ele>
        <time>2025-03-22T16:31:40Z</time>
      </trkpt>
      <trkpt lat="50.62011" lon="5.58803">
        <ele>66</ele>
        <time>2025-03-22T16:31:57Z</time>
      </trkpt>
      <trkpt lat="50.61961" lon="5.58935">
        <ele>69</ele>
        <time>2025-03-22T16:32:20Z</time>
      </trkpt>
      <trkpt lat="50.6192" lon="5.59032">
        <ele>70</ele>
        <time>2025-03-22T16:32:37Z</time>
      </trkpt>
      <trkpt lat="50.61833" lon="5.59211">
        <ele>64</ele>
        <time>2025-03-22T16:33:10Z</time>
      </trkpt>
      <trkpt lat="50.61821" lon="5.59222">
        <ele>64</ele>
        <time>2025-03-22T16:33:14Z</time>
      </trkpt>
      <trkpt lat="50.61762" lon="5.59153">
        <ele>65</ele>
        <time>2025-03-22T16:33:31Z</time>
      </trkpt>
      <trkpt lat="50.61703" lon="5.59281">
        <ele>70</ele>
        <time>2025-03-22T16:33:54Z</time>
      </trkpt>
      <trkpt lat="50.61628" lon="5.59468">
        <ele>72</ele>
        <time>2025-03-22T16:34:27Z</time>
      </trkpt>
      <trkpt lat="50.61571" lon="5.59655">
        <ele>67</ele>
        <time>2025-03-22T16:34:58Z</time>
      </trkpt>
      <trkpt lat="50.61505" lon="5.59902">
        <ele>64</ele>
        <time>2025-03-22T16:35:37Z</time>
      </trkpt>
      <trkpt lat="50.61487" lon="5.59983">
        <ele>64</ele>
        <time>2025-03-22T16:35:50Z</time>
      </trkpt>
      <trkpt lat="50.61482" lon="5.6004">
        <ele>64</ele>
        <time>2025-03-22T16:35:59Z</time>
      </trkpt>
      <trkpt lat="50.61473" lon="5.60093">
        <ele>65</ele>
        <time>2025-03-22T16:36:07Z</time>
      </trkpt>
      <trkpt lat="50.61455" lon="5.60131">
        <ele>65</ele>
        <time>2025-03-22T16:36:14Z</time>
      </trkpt>
      <trkpt lat="50.61448" lon="5.60184">
        <ele>66</ele>
        <time>2025-03-22T16:36:22Z</time>
      </trkpt>
      <trkpt lat="50.61428" lon="5.60195">
        <ele>67</ele>
        <time>2025-03-22T16:36:27Z</time>
      </trkpt>
      <trkpt lat="50.6141" lon="5.60246">
        <ele>68</ele>
        <time>2025-03-22T16:36:35Z</time>
      </trkpt>
      <trkpt lat="50.61152" lon="5.61203">
        <ele>65</ele>
        <time>2025-03-22T16:39:10Z</time>
      </trkpt>
      <trkpt lat="50.61127" lon="5.6119">
        <ele>64</ele>
        <time>2025-03-22T16:39:16Z</time>
      </trkpt>
      <trkpt lat="50.61118" lon="5.61224">
        <ele>65</ele>
        <time>2025-03-22T16:39:21Z</time>
      </trkpt>
      <trkpt lat="50.61108" lon="5.61238">
        <ele>65</ele>
        <time>2025-03-22T16:39:24Z</time>
      </trkpt>
      <trkpt lat="50.61093" lon="5.61248">
        <ele>64</ele>
        <time>2025-03-22T16:39:28Z</time>
      </trkpt>
      <trkpt lat="50.61074" lon="5.61252">
        <ele>64</ele>
        <time>2025-03-22T16:39:33Z</time>
      </trkpt>
      <trkpt lat="50.61052" lon="5.6125">
        <ele>65</ele>
        <time>2025-03-22T16:39:38Z</time>
      </trkpt>
      <trkpt lat="50.60952" lon="5.61221">
        <ele>67</ele>
        <time>2025-03-22T16:40:01Z</time>
      </trkpt>
      <trkpt lat="50.60892" lon="5.61197">
        <ele>68</ele>
        <time>2025-03-22T16:40:16Z</time>
      </trkpt>
      <trkpt lat="50.60926" lon="5.6122">
        <ele>67</ele>
        <time>2025-03-22T16:40:25Z</time>
      </trkpt>
      <trkpt lat="50.60854" lon="5.61471">
        <ele>67</ele>
        <time>2025-03-22T16:41:05Z</time>
      </trkpt>
      <trkpt lat="50.6084" lon="5.61557">
        <ele>69</ele>
        <time>2025-03-22T16:41:19Z</time>
      </trkpt>
      <trkpt lat="50.60851" lon="5.61565">
        <ele>69</ele>
        <time>2025-03-22T16:41:21Z</time>
      </trkpt>
      <trkpt lat="50.60849" lon="5.61612">
        <ele>69</ele>
        <time>2025-03-22T16:41:28Z</time>
      </trkpt>
      <trkpt lat="50.60814" lon="5.61728">
        <ele>70</ele>
        <time>2025-03-22T16:41:47Z</time>
      </trkpt>
      <trkpt lat="50.60815" lon="5.61745">
        <ele>70</ele>
        <time>2025-03-22T16:41:50Z</time>
      </trkpt>
      <trkpt lat="50.60802" lon="5.61794">
        <ele>70</ele>
        <time>2025-03-22T16:41:58Z</time>
      </trkpt>
      <trkpt lat="50.60744" lon="5.61975">
        <ele>71</ele>
        <time>2025-03-22T16:42:28Z</time>
      </trkpt>
      <trkpt lat="50.60686" lon="5.62091">
        <ele>71</ele>
        <time>2025-03-22T16:42:50Z</time>
      </trkpt>
      <trkpt lat="50.60663" lon="5.6215">
        <ele>72</ele>
        <time>2025-03-22T16:43:00Z</time>
      </trkpt>
      <trkpt lat="50.60504" lon="5.62638">
        <ele>70</ele>
        <time>2025-03-22T16:44:21Z</time>
      </trkpt>
      <trkpt lat="50.60464" lon="5.62767">
        <ele>70</ele>
        <time>2025-03-22T16:44:43Z</time>
      </trkpt>
      <trkpt lat="50.60446" lon="5.62758">
        <ele>70</ele>
        <time>2025-03-22T16:44:47Z</time>
      </trkpt>
      <trkpt lat="50.60441" lon="5.62762">
        <ele>70</ele>
        <time>2025-03-22T16:44:48Z</time>
      </trkpt>
      <trkpt lat="50.60425" lon="5.62801">
        <ele>70</ele>
        <time>2025-03-22T16:44:55Z</time>
      </trkpt>
      <trkpt lat="50.60396" lon="5.62964">
        <ele>70</ele>
        <time>2025-03-22T16:45:20Z</time>
      </trkpt>
      <trkpt lat="50.6035" lon="5.63151">
        <ele>71</ele>
        <time>2025-03-22T16:45:50Z</time>
      </trkpt>
      <trkpt lat="50.60335" lon="5.6325">
        <ele>70</ele>
        <time>2025-03-22T16:46:05Z</time>
      </trkpt>
      <trkpt lat="50.60322" lon="5.63363">
        <ele>72</ele>
        <time>2025-03-22T16:46:22Z</time>
      </trkpt>
      <trkpt lat="50.60317" lon="5.63439">
        <ele>73</ele>
        <time>2025-03-22T16:46:33Z</time>
      </trkpt>
      <trkpt lat="50.60318" lon="5.63457">
        <ele>73</ele>
        <time>2025-03-22T16:46:36Z</time>
      </trkpt>
      <trkpt lat="50.60331" lon="5.63503">
        <ele>74</ele>
        <time>2025-03-22T16:46:44Z</time>
      </trkpt>
      <trkpt lat="50.60346" lon="5.63505">
        <ele>75</ele>
        <time>2025-03-22T16:46:47Z</time>
      </trkpt>
      <trkpt lat="50.60355" lon="5.63523">
        <ele>76</ele>
        <time>2025-03-22T16:46:50Z</time>
      </trkpt>
      <trkpt lat="50.60354" lon="5.6355">
        <ele>77</ele>
        <time>2025-03-22T16:46:54Z</time>
      </trkpt>
      <trkpt lat="50.60348" lon="5.63563">
        <ele>78</ele>
        <time>2025-03-22T16:46:57Z</time>
      </trkpt>
      <trkpt lat="50.60351" lon="5.63584">
        <ele>79</ele>
        <time>2025-03-22T16:47:00Z</time>
      </trkpt>
      <trkpt lat="50.60402" lon="5.63632">
        <ele>83</ele>
        <time>2025-03-22T16:47:14Z</time>
      </trkpt>
      <trkpt lat="50.60446" lon="5.63616">
        <ele>83</ele>
        <time>2025-03-22T16:47:24Z</time>
      </trkpt>
      <trkpt lat="50.60487" lon="5.63582">
        <ele>83</ele>
        <time>2025-03-22T16:47:35Z</time>
      </trkpt>
      <trkpt lat="50.60534" lon="5.63635">
        <ele>87</ele>
        <time>2025-03-22T16:47:49Z</time>
      </trkpt>
      <trkpt lat="50.60618" lon="5.63705">
        <ele>93</ele>
        <time>2025-03-22T16:48:11Z</time>
      </trkpt>
      <trkpt lat="50.60625" lon="5.63692">
        <ele>93</ele>
        <time>2025-03-22T16:48:14Z</time>
      </trkpt>
      <trkpt lat="50.6064" lon="5.63685">
        <ele>93</ele>
        <time>2025-03-22T16:48:17Z</time>
      </trkpt>
      <trkpt lat="50.60697" lon="5.63679">
        <ele>95</ele>
        <time>2025-03-22T16:48:31Z</time>
      </trkpt>
      <trkpt lat="50.60769" lon="5.63651">
        <ele>96</ele>
        <time>2025-03-22T16:48:48Z</time>
      </trkpt>
      <trkpt lat="50.60814" lon="5.63627">
        <ele>96</ele>
        <time>2025-03-22T16:48:59Z</time>
      </trkpt>
      <trkpt lat="50.60846" lon="5.63601">
        <ele>95</ele>
        <time>2025-03-22T16:49:07Z</time>
      </trkpt>
      <trkpt lat="50.60881" lon="5.6356">
        <ele>94</ele>
        <time>2025-03-22T16:49:18Z</time>
      </trkpt>
      <trkpt lat="50.60907" lon="5.63525">
        <ele>93</ele>
        <time>2025-03-22T16:49:26Z</time>
      </trkpt>
      <trkpt lat="50.60932" lon="5.63479">
        <ele>92</ele>
        <time>2025-03-22T16:49:34Z</time>
      </trkpt>
      <trkpt lat="50.60955" lon="5.63424">
        <ele>93</ele>
        <time>2025-03-22T16:49:44Z</time>
      </trkpt>
      <trkpt lat="50.60969" lon="5.63384">
        <ele>95</ele>
        <time>2025-03-22T16:49:51Z</time>
      </trkpt>
      <trkpt lat="50.60994" lon="5.63284">
        <ele>99</ele>
        <time>2025-03-22T16:50:07Z</time>
      </trkpt>
      <trkpt lat="50.61019" lon="5.63156">
        <ele>100</ele>
        <time>2025-03-22T16:50:27Z</time>
      </trkpt>
      <trkpt lat="50.61079" lon="5.62877">
        <ele>98</ele>
        <time>2025-03-22T16:51:10Z</time>
      </trkpt>
      <trkpt lat="50.61096" lon="5.62825">
        <ele>98</ele>
        <time>2025-03-22T16:51:19Z</time>
      </trkpt>
      <trkpt lat="50.61129" lon="5.62747">
        <ele>101</ele>
        <time>2025-03-22T16:51:33Z</time>
      </trkpt>
      <trkpt lat="50.61172" lon="5.62671">
        <ele>104</ele>
        <time>2025-03-22T16:51:48Z</time>
      </trkpt>
      <trkpt lat="50.61182" lon="5.62664">
        <ele>105</ele>
        <time>2025-03-22T16:51:51Z</time>
      </trkpt>
      <trkpt lat="50.61233" lon="5.62608">
        <ele>110</ele>
        <time>2025-03-22T16:52:05Z</time>
      </trkpt>
      <trkpt lat="50.61269" lon="5.62581">
        <ele>112</ele>
        <time>2025-03-22T16:52:14Z</time>
      </trkpt>
      <trkpt lat="50.61321" lon="5.62553">
        <ele>113</ele>
        <time>2025-03-22T16:52:27Z</time>
      </trkpt>
      <trkpt lat="50.61469" lon="5.62488">
        <ele>109</ele>
        <time>2025-03-22T16:53:03Z</time>
      </trkpt>
      <trkpt lat="50.61526" lon="5.62453">
        <ele>113</ele>
        <time>2025-03-22T16:53:17Z</time>
      </trkpt>
      <trkpt lat="50.61566" lon="5.62421">
        <ele>120</ele>
        <time>2025-03-22T16:53:28Z</time>
      </trkpt>
      <trkpt lat="50.61596" lon="5.62391">
        <ele>123</ele>
        <time>2025-03-22T16:53:36Z</time>
      </trkpt>
      <trkpt lat="50.6164" lon="5.62336">
        <ele>122</ele>
        <time>2025-03-22T16:53:49Z</time>
      </trkpt>
      <trkpt lat="50.61748" lon="5.62154">
        <ele>125</ele>
        <time>2025-03-22T16:54:26Z</time>
      </trkpt>
      <trkpt lat="50.61791" lon="5.62093">
        <ele>127</ele>
        <time>2025-03-22T16:54:40Z</time>
      </trkpt>
      <trkpt lat="50.61841" lon="5.62045">
        <ele>128</ele>
        <time>2025-03-22T16:54:53Z</time>
      </trkpt>
      <trkpt lat="50.61864" lon="5.62028">
        <ele>129</ele>
        <time>2025-03-22T16:54:59Z</time>
      </trkpt>
      <trkpt lat="50.61895" lon="5.62009">
        <ele>130</ele>
        <time>2025-03-22T16:55:07Z</time>
      </trkpt>
      <trkpt lat="50.61932" lon="5.61996">
        <ele>130</ele>
        <time>2025-03-22T16:55:16Z</time>
      </trkpt>
      <trkpt lat="50.61981" lon="5.6199">
        <ele>131</ele>
        <time>2025-03-22T16:55:28Z</time>
      </trkpt>
      <trkpt lat="50.6203" lon="5.6199">
        <ele>131</ele>
        <time>2025-03-22T16:55:39Z</time>
      </trkpt>
      <trkpt lat="50.62041" lon="5.61985">
        <ele>131</ele>
        <time>2025-03-22T16:55:42Z</time>
      </trkpt>
      <trkpt lat="50.62087" lon="5.62001">
        <ele>131</ele>
        <time>2025-03-22T16:55:53Z</time>
      </trkpt>
      <trkpt lat="50.62124" lon="5.62018">
        <ele>132</ele>
        <time>2025-03-22T16:56:02Z</time>
      </trkpt>
      <trkpt lat="50.62151" lon="5.62036">
        <ele>132</ele>
        <time>2025-03-22T16:56:08Z</time>
      </trkpt>
      <trkpt lat="50.62193" lon="5.62071">
        <ele>134</ele>
        <time>2025-03-22T16:56:20Z</time>
      </trkpt>
      <trkpt lat="50.62215" lon="5.62097">
        <ele>134</ele>
        <time>2025-03-22T16:56:26Z</time>
      </trkpt>
      <trkpt lat="50.62268" lon="5.62171">
        <ele>137</ele>
        <time>2025-03-22T16:56:43Z</time>
      </trkpt>
      <trkpt lat="50.62273" lon="5.6217">
        <ele>137</ele>
        <time>2025-03-22T16:56:44Z</time>
      </trkpt>
      <trkpt lat="50.62281" lon="5.62183">
        <ele>137</ele>
        <time>2025-03-22T16:56:46Z</time>
      </trkpt>
      <trkpt lat="50.62279" lon="5.62188">
        <ele>138</ele>
        <time>2025-03-22T16:56:47Z</time>
      </trkpt>
      <trkpt lat="50.62297" lon="5.62215">
        <ele>138</ele>
        <time>2025-03-22T16:56:53Z</time>
      </trkpt>
      <trkpt lat="50.62407" lon="5.6237">
        <ele>143</ele>
        <time>2025-03-22T16:57:28Z</time>
      </trkpt>
      <trkpt lat="50.62444" lon="5.62406">
        <ele>143</ele>
        <time>2025-03-22T16:57:38Z</time>
      </trkpt>
      <trkpt lat="50.62479" lon="5.62433">
        <ele>143</ele>
        <time>2025-03-22T16:57:47Z</time>
      </trkpt>
      <trkpt lat="50.62511" lon="5.62452">
        <ele>142</ele>
        <time>2025-03-22T16:57:55Z</time>
      </trkpt>
      <trkpt lat="50.62543" lon="5.62466">
        <ele>142</ele>
        <time>2025-03-22T16:58:03Z</time>
      </trkpt>
      <trkpt lat="50.62571" lon="5.62474">
        <ele>142</ele>
        <time>2025-03-22T16:58:09Z</time>
      </trkpt>
      <trkpt lat="50.62605" lon="5.62479">
        <ele>142</ele>
        <time>2025-03-22T16:58:17Z</time>
      </trkpt>
      <trkpt lat="50.62668" lon="5.6248">
        <ele>145</ele>
        <time>2025-03-22T16:58:32Z</time>
      </trkpt>
      <trkpt lat="50.62836" lon="5.62436">
        <ele>150</ele>
        <time>2025-03-22T16:59:12Z</time>
      </trkpt>
      <trkpt lat="50.6284" lon="5.62409">
        <ele>149</ele>
        <time>2025-03-22T16:59:16Z</time>
      </trkpt>
      <trkpt lat="50.62855" lon="5.62413">
        <ele>150</ele>
        <time>2025-03-22T16:59:19Z</time>
      </trkpt>
      <trkpt lat="50.62864" lon="5.62429">
        <ele>151</ele>
        <time>2025-03-22T16:59:22Z</time>
      </trkpt>
      <trkpt lat="50.62871" lon="5.62429">
        <ele>151</ele>
        <time>2025-03-22T16:59:24Z</time>
      </trkpt>
      <trkpt lat="50.63105" lon="5.62361">
        <ele>153</ele>
        <time>2025-03-22T17:00:20Z</time>
      </trkpt>
      <trkpt lat="50.6312" lon="5.62345">
        <ele>154</ele>
        <time>2025-03-22T17:00:24Z</time>
      </trkpt>
      <trkpt lat="50.63147" lon="5.62335">
        <ele>155</ele>
        <time>2025-03-22T17:00:30Z</time>
      </trkpt>
      <trkpt lat="50.63201" lon="5.6233">
        <ele>155</ele>
        <time>2025-03-22T17:00:43Z</time>
      </trkpt>
      <trkpt lat="50.63258" lon="5.62329">
        <ele>154</ele>
        <time>2025-03-22T17:00:56Z</time>
      </trkpt>
      <trkpt lat="50.63302" lon="5.6235">
        <ele>155</ele>
        <time>2025-03-22T17:01:07Z</time>
      </trkpt>
      <trkpt lat="50.63385" lon="5.6241">
        <ele>157</ele>
        <time>2025-03-22T17:01:28Z</time>
      </trkpt>
      <trkpt lat="50.63421" lon="5.62456">
        <ele>158</ele>
        <time>2025-03-22T17:01:39Z</time>
      </trkpt>
      <trkpt lat="50.63463" lon="5.62533">
        <ele>161</ele>
        <time>2025-03-22T17:01:54Z</time>
      </trkpt>
      <trkpt lat="50.63488" lon="5.62606">
        <ele>163</ele>
        <time>2025-03-22T17:02:07Z</time>
      </trkpt>
      <trkpt lat="50.63505" lon="5.62676">
        <ele>164</ele>
        <time>2025-03-22T17:02:18Z</time>
      </trkpt>
      <trkpt lat="50.63513" lon="5.62797">
        <ele>168</ele>
        <time>2025-03-22T17:02:36Z</time>
      </trkpt>
      <trkpt lat="50.63509" lon="5.62862">
        <ele>171</ele>
        <time>2025-03-22T17:02:45Z</time>
      </trkpt>
      <trkpt lat="50.63492" lon="5.62962">
        <ele>174</ele>
        <time>2025-03-22T17:03:01Z</time>
      </trkpt>
      <trkpt lat="50.63481" lon="5.63002">
        <ele>174</ele>
        <time>2025-03-22T17:03:07Z</time>
      </trkpt>
      <trkpt lat="50.63483" lon="5.63008">
        <ele>174</ele>
        <time>2025-03-22T17:03:08Z</time>
      </trkpt>
      <trkpt lat="50.63474" lon="5.63019">
        <ele>174</ele>
        <time>2025-03-22T17:03:11Z</time>
      </trkpt>
      <trkpt lat="50.63462" lon="5.63054">
        <ele>175</ele>
        <time>2025-03-22T17:03:17Z</time>
      </trkpt>
      <trkpt lat="50.63419" lon="5.63135">
        <ele>177</ele>
        <time>2025-03-22T17:03:32Z</time>
      </trkpt>
      <trkpt lat="50.63384" lon="5.6318">
        <ele>178</ele>
        <time>2025-03-22T17:03:43Z</time>
      </trkpt>
      <trkpt lat="50.63318" lon="5.63234">
        <ele>180</ele>
        <time>2025-03-22T17:04:00Z</time>
      </trkpt>
      <trkpt lat="50.63305" lon="5.63235">
        <ele>180</ele>
        <time>2025-03-22T17:04:03Z</time>
      </trkpt>
      <trkpt lat="50.63171" lon="5.63284">
        <ele>183</ele>
        <time>2025-03-22T17:04:35Z</time>
      </trkpt>
      <trkpt lat="50.62843" lon="5.63393">
        <ele>187</ele>
        <time>2025-03-22T17:05:54Z</time>
      </trkpt>
      <trkpt lat="50.62805" lon="5.63414">
        <ele>187</ele>
        <time>2025-03-22T17:06:03Z</time>
      </trkpt>
      <trkpt lat="50.62754" lon="5.63452">
        <ele>187</ele>
        <time>2025-03-22T17:06:16Z</time>
      </trkpt>
      <trkpt lat="50.62691" lon="5.6352">
        <ele>187</ele>
        <time>2025-03-22T17:06:34Z</time>
      </trkpt>
      <trkpt lat="50.62627" lon="5.63611">
        <ele>191</ele>
        <time>2025-03-22T17:06:54Z</time>
      </trkpt>
      <trkpt lat="50.62612" lon="5.63639">
        <ele>192</ele>
        <time>2025-03-22T17:07:00Z</time>
      </trkpt>
      <trkpt lat="50.62576" lon="5.63722">
        <ele>194</ele>
        <time>2025-03-22T17:07:15Z</time>
      </trkpt>
      <trkpt lat="50.62554" lon="5.63799">
        <ele>195</ele>
        <time>2025-03-22T17:07:27Z</time>
      </trkpt>
      <trkpt lat="50.62487" lon="5.64115">
        <ele>203</ele>
        <time>2025-03-22T17:08:16Z</time>
      </trkpt>
      <trkpt lat="50.62477" lon="5.64199">
        <ele>204</ele>
        <time>2025-03-22T17:08:29Z</time>
      </trkpt>
      <trkpt lat="50.62464" lon="5.64504">
        <ele>206</ele>
        <time>2025-03-22T17:09:14Z</time>
      </trkpt>
      <trkpt lat="50.62456" lon="5.64573">
        <ele>206</ele>
        <time>2025-03-22T17:09:25Z</time>
      </trkpt>
      <trkpt lat="50.62445" lon="5.64633">
        <ele>207</ele>
        <time>2025-03-22T17:09:34Z</time>
      </trkpt>
      <trkpt lat="50.62431" lon="5.64688">
        <ele>208</ele>
        <time>2025-03-22T17:09:43Z</time>
      </trkpt>
      <trkpt lat="50.62402" lon="5.64777">
        <ele>212</ele>
        <time>2025-03-22T17:09:58Z</time>
      </trkpt>
      <trkpt lat="50.62382" lon="5.64826">
        <ele>216</ele>
        <time>2025-03-22T17:10:06Z</time>
      </trkpt>
      <trkpt lat="50.62357" lon="5.64873">
        <ele>220</ele>
        <time>2025-03-22T17:10:15Z</time>
      </trkpt>
      <trkpt lat="50.62285" lon="5.64977">
        <ele>224</ele>
        <time>2025-03-22T17:10:38Z</time>
      </trkpt>
      <trkpt lat="50.62241" lon="5.65022">
        <ele>226</ele>
        <time>2025-03-22T17:10:50Z</time>
      </trkpt>
      <trkpt lat="50.62078" lon="5.6515">
        <ele>228</ele>
        <time>2025-03-22T17:11:33Z</time>
      </trkpt>
      <trkpt lat="50.62037" lon="5.65187">
        <ele>229</ele>
        <time>2025-03-22T17:11:44Z</time>
      </trkpt>
      <trkpt lat="50.61975" lon="5.65265">
        <ele>234</ele>
        <time>2025-03-22T17:12:02Z</time>
      </trkpt>
      <trkpt lat="50.61938" lon="5.65332">
        <ele>236</ele>
        <time>2025-03-22T17:12:16Z</time>
      </trkpt>
      <trkpt lat="50.6191" lon="5.65398">
        <ele>237</ele>
        <time>2025-03-22T17:12:27Z</time>
      </trkpt>
      <trkpt lat="50.61842" lon="5.65584">
        <ele>235</ele>
        <time>2025-03-22T17:12:59Z</time>
      </trkpt>
      <trkpt lat="50.61841" lon="5.65602">
        <ele>235</ele>
        <time>2025-03-22T17:13:02Z</time>
      </trkpt>
      <trkpt lat="50.61816" lon="5.65671">
        <ele>234</ele>
        <time>2025-03-22T17:13:14Z</time>
      </trkpt>
      <trkpt lat="50.61803" lon="5.65685">
        <ele>233</ele>
        <time>2025-03-22T17:13:17Z</time>
      </trkpt>
      <trkpt lat="50.61697" lon="5.65987">
        <ele>234</ele>
        <time>2025-03-22T17:14:08Z</time>
      </trkpt>
      <trkpt lat="50.61644" lon="5.66126">
        <ele>240</ele>
        <time>2025-03-22T17:14:32Z</time>
      </trkpt>
      <trkpt lat="50.61647" lon="5.66147">
        <ele>240</ele>
        <time>2025-03-22T17:14:36Z</time>
      </trkpt>
      <trkpt lat="50.61637" lon="5.6616">
        <ele>240</ele>
        <time>2025-03-22T17:14:39Z</time>
      </trkpt>
      <trkpt lat="50.61602" lon="5.66259">
        <ele>242</ele>
        <time>2025-03-22T17:14:55Z</time>
      </trkpt>
      <trkpt lat="50.61552" lon="5.66379">
        <ele>247</ele>
        <time>2025-03-22T17:15:17Z</time>
      </trkpt>
      <trkpt lat="50.61493" lon="5.66496">
        <ele>247</ele>
        <time>2025-03-22T17:15:39Z</time>
      </trkpt>
      <trkpt lat="50.61199" lon="5.67022">
        <ele>256</ele>
        <time>2025-03-22T17:17:23Z</time>
      </trkpt>
      <trkpt lat="50.61197" lon="5.67042">
        <ele>256</ele>
        <time>2025-03-22T17:17:26Z</time>
      </trkpt>
      <trkpt lat="50.61189" lon="5.67044">
        <ele>256</ele>
        <time>2025-03-22T17:17:28Z</time>
      </trkpt>
      <trkpt lat="50.61158" lon="5.67097">
        <ele>256</ele>
        <time>2025-03-22T17:17:38Z</time>
      </trkpt>
      <trkpt lat="50.61133" lon="5.67161">
        <ele>257</ele>
        <time>2025-03-22T17:17:49Z</time>
      </trkpt>
      <trkpt lat="50.61115" lon="5.67216">
        <ele>256</ele>
        <time>2025-03-22T17:17:59Z</time>
      </trkpt>
      <trkpt lat="50.61097" lon="5.67308">
        <ele>257</ele>
        <time>2025-03-22T17:18:13Z</time>
      </trkpt>
      <trkpt lat="50.61088" lon="5.67404">
        <ele>258</ele>
        <time>2025-03-22T17:18:27Z</time>
      </trkpt>
      <trkpt lat="50.61088" lon="5.67469">
        <ele>259</ele>
        <time>2025-03-22T17:18:37Z</time>
      </trkpt>
      <trkpt lat="50.61094" lon="5.67549">
        <ele>260</ele>
        <time>2025-03-22T17:18:49Z</time>
      </trkpt>
      <trkpt lat="50.61107" lon="5.67621">
        <ele>260</ele>
        <time>2025-03-22T17:19:00Z</time>
      </trkpt>
      <trkpt lat="50.61127" lon="5.67692">
        <ele>261</ele>
        <time>2025-03-22T17:19:11Z</time>
      </trkpt>
      <trkpt lat="50.61162" lon="5.67779">
        <ele>263</ele>
        <time>2025-03-22T17:19:27Z</time>
      </trkpt>
      <trkpt lat="50.61218" lon="5.67879">
        <ele>263</ele>
        <time>2025-03-22T17:19:47Z</time>
      </trkpt>
      <trkpt lat="50.61428" lon="5.68211">
        <ele>261</ele>
        <time>2025-03-22T17:20:56Z</time>
      </trkpt>
      <trkpt lat="50.61452" lon="5.68236">
        <ele>261</ele>
        <time>2025-03-22T17:21:03Z</time>
      </trkpt>
      <trkpt lat="50.61468" lon="5.68236">
        <ele>261</ele>
        <time>2025-03-22T17:21:06Z</time>
      </trkpt>
      <trkpt lat="50.61469" lon="5.68244">
        <ele>261</ele>
        <time>2025-03-22T17:21:08Z</time>
      </trkpt>
      <trkpt lat="50.61485" lon="5.68269">
        <ele>261</ele>
        <time>2025-03-22T17:21:13Z</time>
      </trkpt>
      <trkpt lat="50.61481" lon="5.68286">
        <ele>261</ele>
        <time>2025-03-22T17:21:16Z</time>
      </trkpt>
      <trkpt lat="50.61512" lon="5.68332">
        <ele>261</ele>
        <time>2025-03-22T17:21:26Z</time>
      </trkpt>
      <trkpt lat="50.61515" lon="5.68348">
        <ele>261</ele>
        <time>2025-03-22T17:21:28Z</time>
      </trkpt>
      <trkpt lat="50.61662" lon="5.68581">
        <ele>261</ele>
        <time>2025-03-22T17:22:17Z</time>
      </trkpt>
      <trkpt lat="50.61672" lon="5.68589">
        <ele>261</ele>
        <time>2025-03-22T17:22:19Z</time>
      </trkpt>
      <trkpt lat="50.61675" lon="5.68605">
        <ele>261</ele>
        <time>2025-03-22T17:22:22Z</time>
      </trkpt>
      <trkpt lat="50.61689" lon="5.68618">
        <ele>261</ele>
        <time>2025-03-22T17:22:26Z</time>
      </trkpt>
      <trkpt lat="50.61757" lon="5.68735">
        <ele>262</ele>
        <time>2025-03-22T17:22:49Z</time>
      </trkpt>
      <trkpt lat="50.61818" lon="5.68853">
        <ele>262</ele>
        <time>2025-03-22T17:23:12Z</time>
      </trkpt>
      <trkpt lat="50.62058" lon="5.69424">
        <ele>260</ele>
        <time>2025-03-22T17:24:53Z</time>
      </trkpt>
      <trkpt lat="50.62058" lon="5.69434">
        <ele>260</ele>
        <time>2025-03-22T17:24:55Z</time>
      </trkpt>
      <trkpt lat="50.62068" lon="5.69447">
        <ele>260</ele>
        <time>2025-03-22T17:24:58Z</time>
      </trkpt>
      <trkpt lat="50.6227" lon="5.69925">
        <ele>263</ele>
        <time>2025-03-22T17:26:23Z</time>
      </trkpt>
      <trkpt lat="50.6229" lon="5.69985">
        <ele>262</ele>
        <time>2025-03-22T17:26:33Z</time>
      </trkpt>
      <trkpt lat="50.62301" lon="5.69994">
        <ele>262</ele>
        <time>2025-03-22T17:26:36Z</time>
      </trkpt>
      <trkpt lat="50.62359" lon="5.70155">
        <ele>263</ele>
        <time>2025-03-22T17:27:03Z</time>
      </trkpt>
      <trkpt lat="50.627" lon="5.7127">
        <ele>272</ele>
        <time>2025-03-22T17:30:06Z</time>
      </trkpt>
      <trkpt lat="50.62904" lon="5.71922">
        <ele>266</ele>
        <time>2025-03-22T17:31:54Z</time>
      </trkpt>
      <trkpt lat="50.63133" lon="5.72911">
        <ele>274</ele>
        <time>2025-03-22T17:34:30Z</time>
      </trkpt>
      <trkpt lat="50.63145" lon="5.72956">
        <ele>274</ele>
        <time>2025-03-22T17:34:37Z</time>
      </trkpt>
      <trkpt lat="50.63166" lon="5.73005">
        <ele>273</ele>
        <time>2025-03-22T17:34:46Z</time>
      </trkpt>
      <trkpt lat="50.63195" lon="5.73122">
        <ele>274</ele>
        <time>2025-03-22T17:35:05Z</time>
      </trkpt>
      <trkpt lat="50.63195" lon="5.73196">
        <ele>275</ele>
        <time>2025-03-22T17:35:16Z</time>
      </trkpt>
      <trkpt lat="50.63205" lon="5.7325">
        <ele>275</ele>
        <time>2025-03-22T17:35:24Z</time>
      </trkpt>
      <trkpt lat="50.6326" lon="5.73484">
        <ele>276</ele>
        <time>2025-03-22T17:36:01Z</time>
      </trkpt>
      <trkpt lat="50.63277" lon="5.73541">
        <ele>277</ele>
        <time>2025-03-22T17:36:10Z</time>
      </trkpt>
      <trkpt lat="50.63333" lon="5.73783">
        <ele>278</ele>
        <time>2025-03-22T17:36:48Z</time>
      </trkpt>
      <trkpt lat="50.63499" lon="5.74532">
        <ele>278</ele>
        <time>2025-03-22T17:38:46Z</time>
      </trkpt>
      <trkpt lat="50.63509" lon="5.74543">
        <ele>278</ele>
        <time>2025-03-22T17:38:49Z</time>
      </trkpt>
      <trkpt lat="50.63513" lon="5.74558">
        <ele>278</ele>
        <time>2025-03-22T17:38:51Z</time>
      </trkpt>
      <trkpt lat="50.63511" lon="5.74575">
        <ele>278</ele>
        <time>2025-03-22T17:38:54Z</time>
      </trkpt>
      <trkpt lat="50.63516" lon="5.74605">
        <ele>278</ele>
        <time>2025-03-22T17:38:58Z</time>
      </trkpt>
      <trkpt lat="50.63636" lon="5.75131">
        <ele>277</ele>
        <time>2025-03-22T17:40:21Z</time>
      </trkpt>
      <trkpt lat="50.63665" lon="5.75272">
        <ele>278</ele>
        <time>2025-03-22T17:40:43Z</time>
      </trkpt>
      <trkpt lat="50.63681" lon="5.75365">
        <ele>278</ele>
        <time>2025-03-22T17:40:57Z</time>
      </trkpt>
      <trkpt lat="50.63705" lon="5.75545">
        <ele>279</ele>
        <time>2025-03-22T17:41:25Z</time>
      </trkpt>
      <trkpt lat="50.64009" lon="5.78272">
        <ele>299</ele>
        <time>2025-03-22T17:48:15Z</time>
      </trkpt>
      <trkpt lat="50.64041" lon="5.78413">
        <ele>299</ele>
        <time>2025-03-22T17:48:37Z</time>
      </trkpt>
      <trkpt lat="50.64231" lon="5.79058">
        <ele>305</ele>
        <time>2025-03-22T17:50:22Z</time>
      </trkpt>
      <trkpt lat="50.64239" lon="5.79077">
        <ele>305</ele>
        <time>2025-03-22T17:50:26Z</time>
      </trkpt>
      <trkpt lat="50.64247" lon="5.79114">
        <ele>305</ele>
        <time>2025-03-22T17:50:31Z</time>
      </trkpt>
      <trkpt lat="50.64287" lon="5.7922">
        <ele>307</ele>
        <time>2025-03-22T17:50:50Z</time>
      </trkpt>
      <trkpt lat="50.64305" lon="5.79252">
        <ele>308</ele>
        <time>2025-03-22T17:50:56Z</time>
      </trkpt>
      <trkpt lat="50.64335" lon="5.79294">
        <ele>309</ele>
        <time>2025-03-22T17:51:05Z</time>
      </trkpt>
      <trkpt lat="50.64384" lon="5.79338">
        <ele>310</ele>
        <time>2025-03-22T17:51:19Z</time>
      </trkpt>
      <trkpt lat="50.64496" lon="5.79422">
        <ele>309</ele>
        <time>2025-03-22T17:51:48Z</time>
      </trkpt>
      <trkpt lat="50.64567" lon="5.79484">
        <ele>309</ele>
        <time>2025-03-22T17:52:06Z</time>
      </trkpt>
      <trkpt lat="50.64585" lon="5.79504">
        <ele>310</ele>
        <time>2025-03-22T17:52:12Z</time>
      </trkpt>
      <trkpt lat="50.64645" lon="5.79592">
        <ele>309</ele>
        <time>2025-03-22T17:52:31Z</time>
      </trkpt>
      <trkpt lat="50.64668" lon="5.79632">
        <ele>309</ele>
        <time>2025-03-22T17:52:39Z</time>
      </trkpt>
      <trkpt lat="50.64699" lon="5.79706">
        <ele>309</ele>
        <time>2025-03-22T17:52:52Z</time>
      </trkpt>
      <trkpt lat="50.64708" lon="5.79714">
        <ele>308</ele>
        <time>2025-03-22T17:52:54Z</time>
      </trkpt>
      <trkpt lat="50.64707" lon="5.79728">
        <ele>309</ele>
        <time>2025-03-22T17:52:56Z</time>
      </trkpt>
      <trkpt lat="50.64761" lon="5.79909">
        <ele>311</ele>
        <time>2025-03-22T17:53:26Z</time>
      </trkpt>
      <trkpt lat="50.65068" lon="5.80975">
        <ele>318</ele>
        <time>2025-03-22T17:56:19Z</time>
      </trkpt>
      <trkpt lat="50.65073" lon="5.80985">
        <ele>318</ele>
        <time>2025-03-22T17:56:21Z</time>
      </trkpt>
      <trkpt lat="50.6508" lon="5.80987">
        <ele>318</ele>
        <time>2025-03-22T17:56:23Z</time>
      </trkpt>
      <trkpt lat="50.6508" lon="5.81014">
        <ele>318</ele>
        <time>2025-03-22T17:56:27Z</time>
      </trkpt>
      <trkpt lat="50.65188" lon="5.81394">
        <ele>318</ele>
        <time>2025-03-22T17:57:29Z</time>
      </trkpt>
      <trkpt lat="50.6521" lon="5.81516">
        <ele>317</ele>
        <time>2025-03-22T17:57:47Z</time>
      </trkpt>
      <trkpt lat="50.65214" lon="5.81625">
        <ele>317</ele>
        <time>2025-03-22T17:58:04Z</time>
      </trkpt>
      <trkpt lat="50.65213" lon="5.81689">
        <ele>317</ele>
        <time>2025-03-22T17:58:13Z</time>
      </trkpt>
      <trkpt lat="50.65203" lon="5.81799">
        <ele>315</ele>
        <time>2025-03-22T17:58:29Z</time>
      </trkpt>
      <trkpt lat="50.65192" lon="5.81855">
        <ele>315</ele>
        <time>2025-03-22T17:58:38Z</time>
      </trkpt>
      <trkpt lat="50.65171" lon="5.81932">
        <ele>316</ele>
        <time>2025-03-22T17:58:51Z</time>
      </trkpt>
      <trkpt lat="50.6515" lon="5.81998">
        <ele>316</ele>
        <time>2025-03-22T17:59:01Z</time>
      </trkpt>
      <trkpt lat="50.64973" lon="5.82459">
        <ele>317</ele>
        <time>2025-03-22T18:00:21Z</time>
      </trkpt>
      <trkpt lat="50.64928" lon="5.82597">
        <ele>319</ele>
        <time>2025-03-22T18:00:44Z</time>
      </trkpt>
      <trkpt lat="50.64912" lon="5.82677">
        <ele>318</ele>
        <time>2025-03-22T18:00:57Z</time>
      </trkpt>
      <trkpt lat="50.64905" lon="5.82789">
        <ele>317</ele>
        <time>2025-03-22T18:01:13Z</time>
      </trkpt>
      <trkpt lat="50.64909" lon="5.82874">
        <ele>317</ele>
        <time>2025-03-22T18:01:26Z</time>
      </trkpt>
      <trkpt lat="50.64932" lon="5.8308">
        <ele>318</ele>
        <time>2025-03-22T18:01:57Z</time>
      </trkpt>
      <trkpt lat="50.64922" lon="5.83122">
        <ele>319</ele>
        <time>2025-03-22T18:02:04Z</time>
      </trkpt>
      <trkpt lat="50.64924" lon="5.83155">
        <ele>320</ele>
        <time>2025-03-22T18:02:08Z</time>
      </trkpt>
      <trkpt lat="50.64935" lon="5.83167">
        <ele>320</ele>
        <time>2025-03-22T18:02:12Z</time>
      </trkpt>
      <trkpt lat="50.64937" lon="5.83175">
        <ele>320</ele>
        <time>2025-03-22T18:02:13Z</time>
      </trkpt>
      <trkpt lat="50.64936" lon="5.83283">
        <ele>322</ele>
        <time>2025-03-22T18:02:29Z</time>
      </trkpt>
      <trkpt lat="50.64921" lon="5.83382">
        <ele>323</ele>
        <time>2025-03-22T18:02:44Z</time>
      </trkpt>
      <trkpt lat="50.64904" lon="5.83462">
        <ele>323</ele>
        <time>2025-03-22T18:02:56Z</time>
      </trkpt>
      <trkpt lat="50.64878" lon="5.83541">
        <ele>321</ele>
        <time>2025-03-22T18:03:10Z</time>
      </trkpt>
      <trkpt lat="50.64791" lon="5.83779">
        <ele>311</ele>
        <time>2025-03-22T18:03:50Z</time>
      </trkpt>
      <trkpt lat="50.64776" lon="5.83835">
        <ele>311</ele>
        <time>2025-03-22T18:03:59Z</time>
      </trkpt>
      <trkpt lat="50.64757" lon="5.83927">
        <ele>313</ele>
        <time>2025-03-22T18:04:14Z</time>
      </trkpt>
      <trkpt lat="50.64747" lon="5.84013">
        <ele>312</ele>
        <time>2025-03-22T18:04:27Z</time>
      </trkpt>
      <trkpt lat="50.64747" lon="5.84102">
        <ele>308</ele>
        <time>2025-03-22T18:04:40Z</time>
      </trkpt>
      <trkpt lat="50.64759" lon="5.84473">
        <ele>303</ele>
        <time>2025-03-22T18:05:35Z</time>
      </trkpt>
      <trkpt lat="50.64758" lon="5.84546">
        <ele>299</ele>
        <time>2025-03-22T18:05:46Z</time>
      </trkpt>
      <trkpt lat="50.64743" lon="5.84641">
        <ele>296</ele>
        <time>2025-03-22T18:06:00Z</time>
      </trkpt>
      <trkpt lat="50.64689" lon="5.84845">
        <ele>294</ele>
        <time>2025-03-22T18:06:33Z</time>
      </trkpt>
      <trkpt lat="50.64655" lon="5.85004">
        <ele>295</ele>
        <time>2025-03-22T18:06:58Z</time>
      </trkpt>
      <trkpt lat="50.64646" lon="5.85068">
        <ele>296</ele>
        <time>2025-03-22T18:07:07Z</time>
      </trkpt>
      <trkpt lat="50.64643" lon="5.85221">
        <ele>295</ele>
        <time>2025-03-22T18:07:30Z</time>
      </trkpt>
      <trkpt lat="50.64658" lon="5.85329">
        <ele>297</ele>
        <time>2025-03-22T18:07:46Z</time>
      </trkpt>
      <trkpt lat="50.64675" lon="5.85397">
        <ele>296</ele>
        <time>2025-03-22T18:07:57Z</time>
      </trkpt>
      <trkpt lat="50.647" lon="5.8547">
        <ele>294</ele>
        <time>2025-03-22T18:08:10Z</time>
      </trkpt>
      <trkpt lat="50.64725" lon="5.85518">
        <ele>290</ele>
        <time>2025-03-22T18:08:19Z</time>
      </trkpt>
      <trkpt lat="50.64759" lon="5.8557">
        <ele>286</ele>
        <time>2025-03-22T18:08:30Z</time>
      </trkpt>
      <trkpt lat="50.6481" lon="5.85637">
        <ele>284</ele>
        <time>2025-03-22T18:08:45Z</time>
      </trkpt>
      <trkpt lat="50.65086" lon="5.85989">
        <ele>282</ele>
        <time>2025-03-22T18:10:08Z</time>
      </trkpt>
      <trkpt lat="50.65121" lon="5.86053">
        <ele>281</ele>
        <time>2025-03-22T18:10:21Z</time>
      </trkpt>
      <trkpt lat="50.65158" lon="5.86146">
        <ele>281</ele>
        <time>2025-03-22T18:10:37Z</time>
      </trkpt>
      <trkpt lat="50.65192" lon="5.86262">
        <ele>280</ele>
        <time>2025-03-22T18:10:56Z</time>
      </trkpt>
      <trkpt lat="50.6524" lon="5.86567">
        <ele>277</ele>
        <time>2025-03-22T18:11:42Z</time>
      </trkpt>
      <trkpt lat="50.65255" lon="5.86641">
        <ele>279</ele>
        <time>2025-03-22T18:11:54Z</time>
      </trkpt>
      <trkpt lat="50.65376" lon="5.87372">
        <ele>271</ele>
        <time>2025-03-22T18:13:46Z</time>
      </trkpt>
      <trkpt lat="50.65389" lon="5.87418">
        <ele>270</ele>
        <time>2025-03-22T18:13:53Z</time>
      </trkpt>
      <trkpt lat="50.65427" lon="5.87507">
        <ele>270</ele>
        <time>2025-03-22T18:14:09Z</time>
      </trkpt>
      <trkpt lat="50.65461" lon="5.87556">
        <ele>273</ele>
        <time>2025-03-22T18:14:20Z</time>
      </trkpt>
      <trkpt lat="50.65522" lon="5.87612">
        <ele>275</ele>
        <time>2025-03-22T18:14:36Z</time>
      </trkpt>
      <trkpt lat="50.65562" lon="5.87633">
        <ele>273</ele>
        <time>2025-03-22T18:14:46Z</time>
      </trkpt>
      <trkpt lat="50.656" lon="5.87644">
        <ele>271</ele>
        <time>2025-03-22T18:14:55Z</time>
      </trkpt>
      <trkpt lat="50.65634" lon="5.87647">
        <ele>268</ele>
        <time>2025-03-22T18:15:03Z</time>
      </trkpt>
      <trkpt lat="50.65692" lon="5.87637">
        <ele>267</ele>
        <time>2025-03-22T18:15:17Z</time>
      </trkpt>
      <trkpt lat="50.6574" lon="5.87612">
        <ele>268</ele>
        <time>2025-03-22T18:15:29Z</time>
      </trkpt>
      <trkpt lat="50.66247" lon="5.8729">
        <ele>257</ele>
        <time>2025-03-22T18:17:36Z</time>
      </trkpt>
      <trkpt lat="50.66315" lon="5.87243">
        <ele>256</ele>
        <time>2025-03-22T18:17:54Z</time>
      </trkpt>
      <trkpt lat="50.66358" lon="5.87203">
        <ele>256</ele>
        <time>2025-03-22T18:18:05Z</time>
      </trkpt>
      <trkpt lat="50.66394" lon="5.87163">
        <ele>256</ele>
        <time>2025-03-22T18:18:16Z</time>
      </trkpt>
      <trkpt lat="50.66447" lon="5.87083">
        <ele>255</ele>
        <time>2025-03-22T18:18:33Z</time>
      </trkpt>
      <trkpt lat="50.66489" lon="5.86997">
        <ele>252</ele>
        <time>2025-03-22T18:18:49Z</time>
      </trkpt>
      <trkpt lat="50.66516" lon="5.8692">
        <ele>250</ele>
        <time>2025-03-22T18:19:02Z</time>
      </trkpt>
      <trkpt lat="50.66534" lon="5.8685">
        <ele>249</ele>
        <time>2025-03-22T18:19:13Z</time>
      </trkpt>
      <trkpt lat="50.66548" lon="5.8678">
        <ele>249</ele>
        <time>2025-03-22T18:19:24Z</time>
      </trkpt>
      <trkpt lat="50.66621" lon="5.86254">
        <ele>245</ele>
        <time>2025-03-22T18:20:43Z</time>
      </trkpt>
      <trkpt lat="50.66642" lon="5.86132">
        <ele>243</ele>
        <time>2025-03-22T18:21:02Z</time>
      </trkpt>
      <trkpt lat="50.66664" lon="5.86051">
        <ele>243</ele>
        <time>2025-03-22T18:21:15Z</time>
      </trkpt>
      <trkpt lat="50.66698" lon="5.85966">
        <ele>244</ele>
        <time>2025-03-22T18:21:30Z</time>
      </trkpt>
      <trkpt lat="50.66742" lon="5.85882">
        <ele>243</ele>
        <time>2025-03-22T18:21:46Z</time>
      </trkpt>
      <trkpt lat="50.66765" lon="5.85848">
        <ele>242</ele>
        <time>2025-03-22T18:21:54Z</time>
      </trkpt>
      <trkpt lat="50.66809" lon="5.85792">
        <ele>241</ele>
        <time>2025-03-22T18:22:07Z</time>
      </trkpt>
      <trkpt lat="50.66864" lon="5.8574">
        <ele>237</ele>
        <time>2025-03-22T18:22:22Z</time>
      </trkpt>
      <trkpt lat="50.66916" lon="5.85705">
        <ele>235</ele>
        <time>2025-03-22T18:22:35Z</time>
      </trkpt>
      <trkpt lat="50.66947" lon="5.8569">
        <ele>235</ele>
        <time>2025-03-22T18:22:43Z</time>
      </trkpt>
      <trkpt lat="50.66992" lon="5.85674">
        <ele>234</ele>
        <time>2025-03-22T18:22:53Z</time>
      </trkpt>
      <trkpt lat="50.6702" lon="5.85668">
        <ele>234</ele>
        <time>2025-03-22T18:23:00Z</time>
      </trkpt>
      <trkpt lat="50.67257" lon="5.85636">
        <ele>229</ele>
        <time>2025-03-22T18:23:55Z</time>
      </trkpt>
      <trkpt lat="50.67316" lon="5.85619">
        <ele>226</ele>
        <time>2025-03-22T18:24:09Z</time>
      </trkpt>
      <trkpt lat="50.67342" lon="5.85606">
        <ele>226</ele>
        <time>2025-03-22T18:24:16Z</time>
      </trkpt>
      <trkpt lat="50.67416" lon="5.85545">
        <ele>222</ele>
        <time>2025-03-22T18:24:35Z</time>
      </trkpt>
      <trkpt lat="50.67518" lon="5.8542">
        <ele>220</ele>
        <time>2025-03-22T18:25:06Z</time>
      </trkpt>
      <trkpt lat="50.67547" lon="5.85392">
        <ele>218</ele>
        <time>2025-03-22T18:25:13Z</time>
      </trkpt>
      <trkpt lat="50.67597" lon="5.85358">
        <ele>214</ele>
        <time>2025-03-22T18:25:26Z</time>
      </trkpt>
      <trkpt lat="50.6762" lon="5.85348">
        <ele>213</ele>
        <time>2025-03-22T18:25:32Z</time>
      </trkpt>
      <trkpt lat="50.6766" lon="5.85338">
        <ele>212</ele>
        <time>2025-03-22T18:25:41Z</time>
      </trkpt>
      <trkpt lat="50.67699" lon="5.85337">
        <ele>213</ele>
        <time>2025-03-22T18:25:50Z</time>
      </trkpt>
      <trkpt lat="50.67954" lon="5.85292">
        <ele>214</ele>
        <time>2025-03-22T18:26:50Z</time>
      </trkpt>
      <trkpt lat="50.68041" lon="5.85284">
        <ele>216</ele>
        <time>2025-03-22T18:27:11Z</time>
      </trkpt>
      <trkpt lat="50.68049" lon="5.85279">
        <ele>215</ele>
        <time>2025-03-22T18:27:13Z</time>
      </trkpt>
      <trkpt lat="50.68064" lon="5.85286">
        <ele>216</ele>
        <time>2025-03-22T18:27:16Z</time>
      </trkpt>
      <trkpt lat="50.68071" lon="5.8528">
        <ele>216</ele>
        <time>2025-03-22T18:27:18Z</time>
      </trkpt>
      <trkpt lat="50.68149" lon="5.85266">
        <ele>216</ele>
        <time>2025-03-22T18:27:36Z</time>
      </trkpt>
      <trkpt lat="50.68213" lon="5.8526">
        <ele>215</ele>
        <time>2025-03-22T18:27:51Z</time>
      </trkpt>
      <trkpt lat="50.68248" lon="5.85263">
        <ele>214</ele>
        <time>2025-03-22T18:28:00Z</time>
      </trkpt>
      <trkpt lat="50.68307" lon="5.85276">
        <ele>212</ele>
        <time>2025-03-22T18:28:14Z</time>
      </trkpt>
      <trkpt lat="50.68342" lon="5.85289">
        <ele>210</ele>
        <time>2025-03-22T18:28:22Z</time>
      </trkpt>
      <trkpt lat="50.68786" lon="5.85489">
        <ele>198</ele>
        <time>2025-03-22T18:30:10Z</time>
      </trkpt>
      <trkpt lat="50.68823" lon="5.85501">
        <ele>202</ele>
        <time>2025-03-22T18:30:19Z</time>
      </trkpt>
      <trkpt lat="50.68872" lon="5.85509">
        <ele>205</ele>
        <time>2025-03-22T18:30:30Z</time>
      </trkpt>
      <trkpt lat="50.6908" lon="5.85525">
        <ele>209</ele>
        <time>2025-03-22T18:31:19Z</time>
      </trkpt>
      <trkpt lat="50.69636" lon="5.85607">
        <ele>220</ele>
        <time>2025-03-22T18:33:29Z</time>
      </trkpt>
      <trkpt lat="50.69684" lon="5.85619">
        <ele>222</ele>
        <time>2025-03-22T18:33:40Z</time>
      </trkpt>
      <trkpt lat="50.69724" lon="5.85639">
        <ele>223</ele>
        <time>2025-03-22T18:33:50Z</time>
      </trkpt>
      <trkpt lat="50.6976" lon="5.85663">
        <ele>224</ele>
        <time>2025-03-22T18:33:59Z</time>
      </trkpt>
      <trkpt lat="50.69797" lon="5.85697">
        <ele>226</ele>
        <time>2025-03-22T18:34:09Z</time>
      </trkpt>
      <trkpt lat="50.69831" lon="5.85735">
        <ele>228</ele>
        <time>2025-03-22T18:34:19Z</time>
      </trkpt>
      <trkpt lat="50.69873" lon="5.85807">
        <ele>229</ele>
        <time>2025-03-22T18:34:34Z</time>
      </trkpt>
      <trkpt lat="50.69944" lon="5.85954">
        <ele>233</ele>
        <time>2025-03-22T18:35:01Z</time>
      </trkpt>
      <trkpt lat="50.69986" lon="5.86035">
        <ele>236</ele>
        <time>2025-03-22T18:35:16Z</time>
      </trkpt>
      <trkpt lat="50.70039" lon="5.86109">
        <ele>240</ele>
        <time>2025-03-22T18:35:33Z</time>
      </trkpt>
      <trkpt lat="50.70091" lon="5.86165">
        <ele>241</ele>
        <time>2025-03-22T18:35:48Z</time>
      </trkpt>
      <trkpt lat="50.70121" lon="5.8619">
        <ele>241</ele>
        <time>2025-03-22T18:35:56Z</time>
      </trkpt>
      <trkpt lat="50.70173" lon="5.86224">
        <ele>242</ele>
        <time>2025-03-22T18:36:09Z</time>
      </trkpt>
      <trkpt lat="50.70262" lon="5.86265">
        <ele>240</ele>
        <time>2025-03-22T18:36:30Z</time>
      </trkpt>
      <trkpt lat="50.70275" lon="5.86266">
        <ele>239</ele>
        <time>2025-03-22T18:36:33Z</time>
      </trkpt>
      <trkpt lat="50.70289" lon="5.86278">
        <ele>239</ele>
        <time>2025-03-22T18:36:37Z</time>
      </trkpt>
      <trkpt lat="50.70616" lon="5.864">
        <ele>241</ele>
        <time>2025-03-22T18:37:56Z</time>
      </trkpt>
      <trkpt lat="50.7068" lon="5.8643">
        <ele>244</ele>
        <time>2025-03-22T18:38:11Z</time>
      </trkpt>
      <trkpt lat="50.70717" lon="5.86458">
        <ele>245</ele>
        <time>2025-03-22T18:38:21Z</time>
      </trkpt>
      <trkpt lat="50.70746" lon="5.86496">
        <ele>247</ele>
        <time>2025-03-22T18:38:30Z</time>
      </trkpt>
      <trkpt lat="50.70782" lon="5.86549">
        <ele>245</ele>
        <time>2025-03-22T18:38:41Z</time>
      </trkpt>
      <trkpt lat="50.70811" lon="5.86608">
        <ele>242</ele>
        <time>2025-03-22T18:38:52Z</time>
      </trkpt>
      <trkpt lat="50.70841" lon="5.86703">
        <ele>240</ele>
        <time>2025-03-22T18:39:08Z</time>
      </trkpt>
      <trkpt lat="50.70848" lon="5.86789">
        <ele>240</ele>
        <time>2025-03-22T18:39:21Z</time>
      </trkpt>
      <trkpt lat="50.70849" lon="5.8684">
        <ele>240</ele>
        <time>2025-03-22T18:39:28Z</time>
      </trkpt>
      <trkpt lat="50.70842" lon="5.86927">
        <ele>242</ele>
        <time>2025-03-22T18:39:41Z</time>
      </trkpt>
      <trkpt lat="50.70794" lon="5.87274">
        <ele>250</ele>
        <time>2025-03-22T18:40:34Z</time>
      </trkpt>
      <trkpt lat="50.70786" lon="5.87392">
        <ele>254</ele>
        <time>2025-03-22T18:40:51Z</time>
      </trkpt>
      <trkpt lat="50.70786" lon="5.87572">
        <ele>257</ele>
        <time>2025-03-22T18:41:18Z</time>
      </trkpt>
      <trkpt lat="50.70791" lon="5.87649">
        <ele>258</ele>
        <time>2025-03-22T18:41:29Z</time>
      </trkpt>
      <trkpt lat="50.70807" lon="5.87793">
        <ele>261</ele>
        <time>2025-03-22T18:41:51Z</time>
      </trkpt>
      <trkpt lat="50.70829" lon="5.87918">
        <ele>263</ele>
        <time>2025-03-22T18:42:10Z</time>
      </trkpt>
      <trkpt lat="50.70865" lon="5.88045">
        <ele>266</ele>
        <time>2025-03-22T18:42:31Z</time>
      </trkpt>
      <trkpt lat="50.70914" lon="5.88166">
        <ele>272</ele>
        <time>2025-03-22T18:42:52Z</time>
      </trkpt>
      <trkpt lat="50.70942" lon="5.88219">
        <ele>274</ele>
        <time>2025-03-22T18:43:02Z</time>
      </trkpt>
      <trkpt lat="50.70982" lon="5.88278">
        <ele>278</ele>
        <time>2025-03-22T18:43:15Z</time>
      </trkpt>
      <trkpt lat="50.71081" lon="5.8839">
        <ele>276</ele>
        <time>2025-03-22T18:43:43Z</time>
      </trkpt>
      <trkpt lat="50.71137" lon="5.88443">
        <ele>272</ele>
        <time>2025-03-22T18:43:59Z</time>
      </trkpt>
      <trkpt lat="50.71373" lon="5.88687">
        <ele>263</ele>
        <time>2025-03-22T18:45:04Z</time>
      </trkpt>
      <trkpt lat="50.71494" lon="5.88843">
        <ele>262</ele>
        <time>2025-03-22T18:45:41Z</time>
      </trkpt>
      <trkpt lat="50.71587" lon="5.89002">
        <ele>256</ele>
        <time>2025-03-22T18:46:13Z</time>
      </trkpt>
      <trkpt lat="50.71732" lon="5.89269">
        <ele>255</ele>
        <time>2025-03-22T18:47:05Z</time>
      </trkpt>
      <trkpt lat="50.71769" lon="5.89333">
        <ele>249</ele>
        <time>2025-03-22T18:47:18Z</time>
      </trkpt>
      <trkpt lat="50.71816" lon="5.89394">
        <ele>244</ele>
        <time>2025-03-22T18:47:32Z</time>
      </trkpt>
      <trkpt lat="50.71877" lon="5.89454">
        <ele>243</ele>
        <time>2025-03-22T18:47:49Z</time>
      </trkpt>
      <trkpt lat="50.72006" lon="5.89538">
        <ele>240</ele>
        <time>2025-03-22T18:48:21Z</time>
      </trkpt>
      <trkpt lat="50.72102" lon="5.89588">
        <ele>237</ele>
        <time>2025-03-22T18:48:45Z</time>
      </trkpt>
      <trkpt lat="50.72133" lon="5.89618">
        <ele>236</ele>
        <time>2025-03-22T18:48:53Z</time>
      </trkpt>
      <trkpt lat="50.72165" lon="5.8966">
        <ele>236</ele>
        <time>2025-03-22T18:49:03Z</time>
      </trkpt>
      <trkpt lat="50.72206" lon="5.89731">
        <ele>235</ele>
        <time>2025-03-22T18:49:17Z</time>
      </trkpt>
      <trkpt lat="50.72228" lon="5.89794">
        <ele>236</ele>
        <time>2025-03-22T18:49:28Z</time>
      </trkpt>
      <trkpt lat="50.72247" lon="5.89899">
        <ele>238</ele>
        <time>2025-03-22T18:49:44Z</time>
      </trkpt>
      <trkpt lat="50.72251" lon="5.89964">
        <ele>237</ele>
        <time>2025-03-22T18:49:54Z</time>
      </trkpt>
      <trkpt lat="50.7225" lon="5.90009">
        <ele>237</ele>
        <time>2025-03-22T18:50:00Z</time>
      </trkpt>
      <trkpt lat="50.72241" lon="5.90082">
        <ele>233</ele>
        <time>2025-03-22T18:50:11Z</time>
      </trkpt>
      <trkpt lat="50.72216" lon="5.90181">
        <ele>229</ele>
        <time>2025-03-22T18:50:27Z</time>
      </trkpt>
      <trkpt lat="50.72196" lon="5.9023">
        <ele>228</ele>
        <time>2025-03-22T18:50:36Z</time>
      </trkpt>
      <trkpt lat="50.72048" lon="5.90479">
        <ele>219</ele>
        <time>2025-03-22T18:51:26Z</time>
      </trkpt>
      <trkpt lat="50.71907" lon="5.90724">
        <ele>224</ele>
        <time>2025-03-22T18:52:15Z</time>
      </trkpt>
      <trkpt lat="50.7189" lon="5.90768">
        <ele>222</ele>
        <time>2025-03-22T18:52:23Z</time>
      </trkpt>
      <trkpt lat="50.71872" lon="5.90825">
        <ele>221</ele>
        <time>2025-03-22T18:52:32Z</time>
      </trkpt>
      <trkpt lat="50.71863" lon="5.9087">
        <ele>219</ele>
        <time>2025-03-22T18:52:39Z</time>
      </trkpt>
      <trkpt lat="50.71854" lon="5.90953">
        <ele>217</ele>
        <time>2025-03-22T18:52:52Z</time>
      </trkpt>
      <trkpt lat="50.71857" lon="5.91062">
        <ele>216</ele>
        <time>2025-03-22T18:53:08Z</time>
      </trkpt>
      <trkpt lat="50.71865" lon="5.9111">
        <ele>214</ele>
        <time>2025-03-22T18:53:15Z</time>
      </trkpt>
      <trkpt lat="50.71882" lon="5.9117">
        <ele>212</ele>
        <time>2025-03-22T18:53:25Z</time>
      </trkpt>
      <trkpt lat="50.71918" lon="5.91259">
        <ele>210</ele>
        <time>2025-03-22T18:53:41Z</time>
      </trkpt>
      <trkpt lat="50.71949" lon="5.91308">
        <ele>210</ele>
        <time>2025-03-22T18:53:51Z</time>
      </trkpt>
      <trkpt lat="50.72" lon="5.91362">
        <ele>211</ele>
        <time>2025-03-22T18:54:05Z</time>
      </trkpt>
      <trkpt lat="50.72032" lon="5.91384">
        <ele>211</ele>
        <time>2025-03-22T18:54:13Z</time>
      </trkpt>
      <trkpt lat="50.7211" lon="5.91407">
        <ele>211</ele>
        <time>2025-03-22T18:54:32Z</time>
      </trkpt>
      <trkpt lat="50.72156" lon="5.91404">
        <ele>211</ele>
        <time>2025-03-22T18:54:43Z</time>
      </trkpt>
      <trkpt lat="50.72197" lon="5.91389">
        <ele>213</ele>
        <time>2025-03-22T18:54:52Z</time>
      </trkpt>
      <trkpt lat="50.72197" lon="5.91362">
        <ele>211</ele>
        <time>2025-03-22T18:54:56Z</time>
      </trkpt>
      <trkpt lat="50.72563" lon="5.91108">
        <ele>213</ele>
        <time>2025-03-22T18:56:30Z</time>
      </trkpt>
      <trkpt lat="50.72608" lon="5.91083">
        <ele>212</ele>
        <time>2025-03-22T18:56:41Z</time>
      </trkpt>
      <trkpt lat="50.7266" lon="5.91062">
        <ele>213</ele>
        <time>2025-03-22T18:56:53Z</time>
      </trkpt>
      <trkpt lat="50.72729" lon="5.91059">
        <ele>212</ele>
        <time>2025-03-22T18:57:10Z</time>
      </trkpt>
      <trkpt lat="50.72756" lon="5.91063">
        <ele>212</ele>
        <time>2025-03-22T18:57:16Z</time>
      </trkpt>
      <trkpt lat="50.72783" lon="5.91075">
        <ele>213</ele>
        <time>2025-03-22T18:57:22Z</time>
      </trkpt>
      <trkpt lat="50.72849" lon="5.91119">
        <ele>217</ele>
        <time>2025-03-22T18:57:39Z</time>
      </trkpt>
      <trkpt lat="50.72881" lon="5.91149">
        <ele>223</ele>
        <time>2025-03-22T18:57:48Z</time>
      </trkpt>
      <trkpt lat="50.72923" lon="5.91207">
        <ele>229</ele>
        <time>2025-03-22T18:58:01Z</time>
      </trkpt>
      <trkpt lat="50.72966" lon="5.91303">
        <ele>231</ele>
        <time>2025-03-22T18:58:18Z</time>
      </trkpt>
      <trkpt lat="50.72983" lon="5.91384">
        <ele>229</ele>
        <time>2025-03-22T18:58:31Z</time>
      </trkpt>
      <trkpt lat="50.72994" lon="5.91468">
        <ele>224</ele>
        <time>2025-03-22T18:58:44Z</time>
      </trkpt>
      <trkpt lat="50.72991" lon="5.91583">
        <ele>222</ele>
        <time>2025-03-22T18:59:01Z</time>
      </trkpt>
      <trkpt lat="50.72983" lon="5.91633">
        <ele>220</ele>
        <time>2025-03-22T18:59:08Z</time>
      </trkpt>
      <trkpt lat="50.72967" lon="5.91687">
        <ele>218</ele>
        <time>2025-03-22T18:59:17Z</time>
      </trkpt>
      <trkpt lat="50.7296" lon="5.91719">
        <ele>217</ele>
        <time>2025-03-22T18:59:22Z</time>
      </trkpt>
      <trkpt lat="50.73011" lon="5.91756">
        <ele>213</ele>
        <time>2025-03-22T18:59:35Z</time>
      </trkpt>
      <trkpt lat="50.73029" lon="5.91755">
        <ele>213</ele>
        <time>2025-03-22T18:59:39Z</time>
      </trkpt>
      <trkpt lat="50.73034" lon="5.91783">
        <ele>211</ele>
        <time>2025-03-22T18:59:44Z</time>
      </trkpt>
      <trkpt lat="50.73022" lon="5.91967">
        <ele>204</ele>
        <time>2025-03-22T19:00:11Z</time>
      </trkpt>
      <trkpt lat="50.73027" lon="5.92">
        <ele>203</ele>
        <time>2025-03-22T19:00:16Z</time>
      </trkpt>
      <trkpt lat="50.73042" lon="5.91998">
        <ele>203</ele>
        <time>2025-03-22T19:00:19Z</time>
      </trkpt>
      <trkpt lat="50.73065" lon="5.92003">
        <ele>202</ele>
        <time>2025-03-22T19:00:25Z</time>
      </trkpt>
      <trkpt lat="50.73118" lon="5.92042">
        <ele>201</ele>
        <time>2025-03-22T19:00:39Z</time>
      </trkpt>
      <trkpt lat="50.7314" lon="5.92071">
        <ele>199</ele>
        <time>2025-03-22T19:00:45Z</time>
      </trkpt>
      <trkpt lat="50.73182" lon="5.92192">
        <ele>193</ele>
        <time>2025-03-22T19:01:06Z</time>
      </trkpt>
      <trkpt lat="50.73203" lon="5.92232">
        <ele>192</ele>
        <time>2025-03-22T19:01:13Z</time>
      </trkpt>
      <trkpt lat="50.73284" lon="5.92343">
        <ele>192</ele>
        <time>2025-03-22T19:01:38Z</time>
      </trkpt>
      <trkpt lat="50.73299" lon="5.92356">
        <ele>191</ele>
        <time>2025-03-22T19:01:42Z</time>
      </trkpt>
      <trkpt lat="50.73717" lon="5.92522">
        <ele>187</ele>
        <time>2025-03-22T19:03:23Z</time>
      </trkpt>
      <trkpt lat="50.73754" lon="5.92618">
        <ele>184</ele>
        <time>2025-03-22T19:03:40Z</time>
      </trkpt>
      <trkpt lat="50.73849" lon="5.92916">
        <ele>178</ele>
        <time>2025-03-22T19:04:29Z</time>
      </trkpt>
      <trkpt lat="50.73906" lon="5.93081">
        <ele>178</ele>
        <time>2025-03-22T19:04:57Z</time>
      </trkpt>
      <trkpt lat="50.73946" lon="5.93163">
        <ele>174</ele>
        <time>2025-03-22T19:05:12Z</time>
      </trkpt>
      <trkpt lat="50.73991" lon="5.93238">
        <ele>171</ele>
        <time>2025-03-22T19:05:27Z</time>
      </trkpt>
      <trkpt lat="50.74038" lon="5.93309">
        <ele>167</ele>
        <time>2025-03-22T19:05:42Z</time>
      </trkpt>
      <trkpt lat="50.74079" lon="5.93363">
        <ele>164</ele>
        <time>2025-03-22T19:05:55Z</time>
      </trkpt>
      <trkpt lat="50.74104" lon="5.93384">
        <ele>163</ele>
        <time>2025-03-22T19:06:02Z</time>
      </trkpt>
      <trkpt lat="50.74218" lon="5.93461">
        <ele>160</ele>
        <time>2025-03-22T19:06:31Z</time>
      </trkpt>
      <trkpt lat="50.74286" lon="5.93504">
        <ele>160</ele>
        <time>2025-03-22T19:06:48Z</time>
      </trkpt>
      <trkpt lat="50.74397" lon="5.93564">
        <ele>161</ele>
        <time>2025-03-22T19:07:15Z</time>
      </trkpt>
      <trkpt lat="50.74424" lon="5.93593">
        <ele>161</ele>
        <time>2025-03-22T19:07:23Z</time>
      </trkpt>
      <trkpt lat="50.74471" lon="5.93699">
        <ele>159</ele>
        <time>2025-03-22T19:07:42Z</time>
      </trkpt>
      <trkpt lat="50.74536" lon="5.9383">
        <ele>158</ele>
        <time>2025-03-22T19:08:06Z</time>
      </trkpt>
      <trkpt lat="50.7458" lon="5.93781">
        <ele>156</ele>
        <time>2025-03-22T19:08:19Z</time>
      </trkpt>
      <trkpt lat="50.74706" lon="5.93598">
        <ele>149</ele>
        <time>2025-03-22T19:08:59Z</time>
      </trkpt>
      <trkpt lat="50.74727" lon="5.9358">
        <ele>148</ele>
        <time>2025-03-22T19:09:04Z</time>
      </trkpt>
      <trkpt lat="50.74745" lon="5.93574">
        <ele>148</ele>
        <time>2025-03-22T19:09:09Z</time>
      </trkpt>
      <trkpt lat="50.7477" lon="5.93577">
        <ele>147</ele>
        <time>2025-03-22T19:09:15Z</time>
      </trkpt>
      <trkpt lat="50.74906" lon="5.93624">
        <ele>142</ele>
        <time>2025-03-22T19:09:47Z</time>
      </trkpt>
      <trkpt lat="50.74923" lon="5.93624">
        <ele>142</ele>
        <time>2025-03-22T19:09:51Z</time>
      </trkpt>
      <trkpt lat="50.74973" lon="5.93588">
        <ele>141</ele>
        <time>2025-03-22T19:10:04Z</time>
      </trkpt>
      <trkpt lat="50.75044" lon="5.93524">
        <ele>146</ele>
        <time>2025-03-22T19:10:23Z</time>
      </trkpt>
      <trkpt lat="50.75058" lon="5.93504">
        <ele>148</ele>
        <time>2025-03-22T19:10:27Z</time>
      </trkpt>
      <trkpt lat="50.75064" lon="5.93484">
        <ele>149</ele>
        <time>2025-03-22T19:10:31Z</time>
      </trkpt>
      <trkpt lat="50.7507" lon="5.93444">
        <ele>152</ele>
        <time>2025-03-22T19:10:37Z</time>
      </trkpt>
      <trkpt lat="50.75072" lon="5.93396">
        <ele>155</ele>
        <time>2025-03-22T19:10:44Z</time>
      </trkpt>
      <trkpt lat="50.75077" lon="5.93367">
        <ele>156</ele>
        <time>2025-03-22T19:10:48Z</time>
      </trkpt>
      <trkpt lat="50.75091" lon="5.93374">
        <ele>155</ele>
        <time>2025-03-22T19:10:52Z</time>
      </trkpt>
      <trkpt lat="50.75116" lon="5.93371">
        <ele>154</ele>
        <time>2025-03-22T19:10:58Z</time>
      </trkpt>
      <trkpt lat="50.75145" lon="5.93441">
        <ele>148</ele>
        <time>2025-03-22T19:11:10Z</time>
      </trkpt>
      <trkpt lat="50.75167" lon="5.93437">
        <ele>146</ele>
        <time>2025-03-22T19:11:15Z</time>
      </trkpt>
      <trkpt lat="50.75195" lon="5.93437">
        <ele>145</ele>
        <time>2025-03-22T19:11:22Z</time>
      </trkpt>
      <trkpt lat="50.75256" lon="5.93445">
        <ele>142</ele>
        <time>2025-03-22T19:11:36Z</time>
      </trkpt>
      <trkpt lat="50.75315" lon="5.93469">
        <ele>140</ele>
        <time>2025-03-22T19:11:50Z</time>
      </trkpt>
      <trkpt lat="50.75347" lon="5.93467">
        <ele>140</ele>
        <time>2025-03-22T19:11:58Z</time>
      </trkpt>
      <trkpt lat="50.75361" lon="5.93496">
        <ele>137</ele>
        <time>2025-03-22T19:12:03Z</time>
      </trkpt>
      <trkpt lat="50.75393" lon="5.93521">
        <ele>134</ele>
        <time>2025-03-22T19:12:11Z</time>
      </trkpt>
      <trkpt lat="50.7548" lon="5.93634">
        <ele>128</ele>
        <time>2025-03-22T19:12:38Z</time>
      </trkpt>
      <trkpt lat="50.75516" lon="5.9365">
        <ele>127</ele>
        <time>2025-03-22T19:12:46Z</time>
      </trkpt>
      <trkpt lat="50.75552" lon="5.93698">
        <ele>124</ele>
        <time>2025-03-22T19:12:57Z</time>
      </trkpt>
      <trkpt lat="50.7557" lon="5.93709">
        <ele>124</ele>
        <time>2025-03-22T19:13:02Z</time>
      </trkpt>
      <trkpt lat="50.75594" lon="5.93728">
        <ele>123</ele>
        <time>2025-03-22T19:13:08Z</time>
      </trkpt>
      <trkpt lat="50.75628" lon="5.93698">
        <ele>123</ele>
        <time>2025-03-22T19:13:17Z</time>
      </trkpt>
      <trkpt lat="50.75632" lon="5.93706">
        <ele>123</ele>
        <time>2025-03-22T19:13:19Z</time>
      </trkpt>
      <trkpt lat="50.75632" lon="5.93727">
        <ele>123</ele>
        <time>2025-03-22T19:13:22Z</time>
      </trkpt>
      <trkpt lat="50.75641" lon="5.93773">
        <ele>122</ele>
        <time>2025-03-22T19:13:29Z</time>
      </trkpt>
      <trkpt lat="50.75646" lon="5.93786">
        <ele>123</ele>
        <time>2025-03-22T19:13:31Z</time>
      </trkpt>
      <trkpt lat="50.75641" lon="5.93828">
        <ele>123</ele>
        <time>2025-03-22T19:13:38Z</time>
      </trkpt>
    </trkseg>
  </trk>
</gpx>